Regional Weather Roundup
Issued by NWS Spokane, WA

Home | Current Version | Previous Version | Text Only | Print | Product List | Glossary On
Versions: 1 2 3 4 5 6 7 8 9 10 11 12 13 14 15 16 17 18 19 20 21 22 23 24 25 26 27 28 29 30 31 32 33 34 35 36 37 38 39 40 41 42 43 44 45 46 47 48 49 50
000
NZUS01 KOTX 031805
RWROTX
EASTERN WASHINGTON/NORTHERN IDAHO ROUNDUP
NATIONAL WEATHER SERVICE, SPOKANE WA
1100 AM PDT SUN MAY 03 2015

Note: "fair" indicated few or no clouds below 12,000 feet with no
significant weather and/or obstructions to visibility.

...NORTHEAST WASHINGTON AND NORTHERN IDAHO PANHANDLE...

CITY           SKY/WX    TMP DP  RH WIND       PRES   REMARKS
SPOKANE INTL   MOSUNNY   60  24  25 NE8       30.00S
SPOKANE DOWNTO SUNNY     62  31  31 VRB5      30.00F
COEUR D ALENE  SUNNY     61  27  27 N14       30.01F
DEER PARK      SUNNY     61  23  23 NE10      30.01F
SANDPOINT      SUNNY     57  23  26 E8        30.02F
BONNERS FERRY  FAIR      54  25  32 CALM      30.04F

...SOUTHEAST WASHINGTON AND SOUTHERN IDAHO PANHANDLE...

CITY           SKY/WX    TMP DP  RH WIND       PRES   REMARKS
WALLA WALLA    SUNNY     61  33  35 W5        29.97S
PULLMAN/MOSCOW SUNNY     63  27  25 N6        29.99S
LEWISTON       SUNNY     61  32  33 CALM      29.97F
LOWELL           N/A     62  32  32 CALM      29.95F

...COLUMBIA BASIN...

CITY           SKY/WX    TMP DP  RH WIND       PRES   REMARKS
EPHRATA        SUNNY     66  23  19 VRB5      29.98F
MOSES LAKE     SUNNY     67  27  22 MISG      29.98F
TRI CITIES     SUNNY     63  36  36 N7        29.98F
HERMISTON      SUNNY     64  32  30 VRB3      29.97S
PENDLETON      SUNNY     64  33  31 VRB6      29.96S

...EAST SLOPES CASCADES...

CITY           SKY/WX    TMP DP  RH WIND       PRES   REMARKS
THE DALLES     SUNNY     66  41  40 NE3       29.95F
YAKIMA         SUNNY     69  30  23 VRB3      29.97S
ELLENSBURG     SUNNY     63  31  30 VRB3      29.98F
WENATCHEE      SUNNY     62  28  27 CALM      30.00F
OMAK           SUNNY     62  27  26 N13       30.01F

...SOUTHERN BRITISH COLUMBIA...

CITY           SKY/WX    TMP DP  RH WIND       PRES   REMARKS

...WESTERN MONTANA...

CITY           SKY/WX    TMP DP  RH WIND       PRES   REMARKS
MISSOULA       SUNNY     59  27  29 CALM      30.00F

...NEIGHBORING CITIES...

CITY           SKY/WX    TMP DP  RH WIND       PRES   REMARKS
SEATTLE        SUNNY     59  43  55 N7        30.01S



USA.gov is the U.S. government's official web portal to all federal, state and local government web resources and services.